カタログに戻る

STARLINK-5737

運用中通信VLEO
NORAD 55570·PAYLOAD·🇺🇸 United States

打ち上げ Feb 12, 2023 から Cape Canaveral Space Force Station

Loading…

次のパス (今後24時間)

TLE

最新Source: CelesTrak SupGP

元期: Sep 15, 2026, 02:20 UTC

1 55570C 23020B   26258.09770833 -.00020668  00000+0 -74858-3 0  2585
2 55570  43.0048  15.6092 0002187 272.5074 293.0640 15.27588103    16

AllMySatでSTARLINK-5737をリアルタイム追跡

Download on the App Store